Time,TemperatureF,DewpointF,PressureIn,WindDirection,WindDirectionDegrees,WindSpeedMPH,WindSpeedGustMPH,Humidity,HourlyPrecipIn,Conditions,Clouds,dailyrainin,SoftwareType,DateUTC
2013-08-26 00:04:00,82.0,75.2,29.92,NNW,334,0.0,10.0,80,0.00,,,0.00,VWS V14.01,2013-08-26 05:04:00,
2013-08-26 00:09:00,81.9,75.1,29.92,North,350,0.0,10.0,80,0.00,,,0.00,VWS V14.01,2013-08-26 05:09:00,
2013-08-26 00:14:00,81.9,75.1,29.92,WSW,255,1.0,4.0,80,0.00,,,0.00,VWS V14.01,2013-08-26 05:14:00,
2013-08-26 00:19:00,81.8,75.0,29.92,South,186,0.0,9.0,80,0.00,,,0.00,VWS V14.01,2013-08-26 05:19:00,
2013-08-26 00:24:00,81.7,75.3,29.92,WNW,286,2.0,9.0,81,0.00,,,0.00,VWS V14.01,2013-08-26 05:24:00,
2013-08-26 00:29:00,81.6,75.2,29.92,SE,142,0.0,8.0,81,0.00,,,0.00,VWS V14.01,2013-08-26 05:29:00,
2013-08-26 00:35:00,81.5,75.1,29.92,NNE,18,0.0,8.0,81,0.00,,,0.00,VWS V14.01,2013-08-26 05:35:00,
2013-08-26 00:40:00,81.3,74.9,29.92,SSE,151,0.0,8.0,81,0.00,,,0.00,VWS V14.01,2013-08-26 05:40:00,
2013-08-26 00:45:00,81.2,75.2,29.92,NNW,336,0.0,1.0,82,0.00,,,0.00,VWS V14.01,2013-08-26 05:45:00,
2013-08-26 00:50:00,81.0,75.0,29.92,NW,311,2.0,7.0,82,0.00,,,0.00,VWS V14.01,2013-08-26 05:50:00,
2013-08-26 00:55:00,80.9,74.9,29.92,North,5,2.0,7.0,82,0.00,,,0.00,VWS V14.01,2013-08-26 05:55:00,
2013-08-26 01:00:00,80.8,74.8,29.92,West,277,1.0,5.0,82,0.00,,,0.00,VWS V14.01,2013-08-26 06:00:00,
2013-08-26 01:05:00,80.7,75.1,29.92,NNW,340,0.0,6.0,83,0.00,,,0.00,VWS V14.01,2013-08-26 06:05:00,
2013-08-26 01:10:00,80.5,74.9,29.92,NNW,329,0.0,6.0,83,0.00,,,0.00,VWS V14.01,2013-08-26 06:10:00,
2013-08-26 01:15:00,80.4,74.8,29.92,WSW,257,0.0,3.0,83,0.00,,,0.00,VWS V14.01,2013-08-26 06:15:00,
2013-08-26 01:20:00,80.2,74.9,29.92,SW,228,1.0,6.0,84,0.00,,,0.00,VWS V14.01,2013-08-26 06:20:00,
2013-08-26 01:25:00,80.1,74.8,29.92,West,259,1.0,6.0,84,0.00,,,0.00,VWS V14.01,2013-08-26 06:25:00,
2013-08-26 01:30:00,80.0,74.7,29.92,West,271,1.0,3.0,84,0.00,,,0.00,VWS V14.01,2013-08-26 06:30:00,
2013-08-26 01:35:00,79.9,74.6,29.92,SSW,205,3.0,4.0,84,0.00,,,0.00,VWS V14.01,2013-08-26 06:35:00,
2013-08-26 01:40:00,79.8,74.5,29.92,SSW,194,0.0,6.0,84,0.00,,,0.00,VWS V14.01,2013-08-26 06:40:00,
2013-08-26 01:45:00,79.8,74.5,29.92,SSW,213,0.0,5.0,84,0.00,,,0.00,VWS V14.01,2013-08-26 06:45:00,
2013-08-26 01:51:00,79.7,74.8,29.92,SW,221,0.0,5.0,85,0.00,,,0.00,VWS V14.01,2013-08-26 06:51:00,
2013-08-26 01:56:00,79.6,74.7,29.92,SSW,209,3.0,5.0,85,0.00,,,0.00,VWS V14.01,2013-08-26 06:56:00,
2013-08-26 02:01:00,79.5,74.6,29.92,West,259,1.0,5.0,85,0.00,,,0.00,VWS V14.01,2013-08-26 07:01:00,
2013-08-26 02:06:00,79.4,74.5,29.92,North,11,0.0,5.0,85,0.00,,,0.00,VWS V14.01,2013-08-26 07:06:00,
2013-08-26 02:11:00,79.3,74.4,29.92,West,259,2.0,5.0,85,0.00,,,0.00,VWS V14.01,2013-08-26 07:11:00,
2013-08-26 02:16:00,79.2,74.7,29.92,SSW,205,0.0,2.0,86,0.00,,,0.00,VWS V14.01,2013-08-26 07:16:00,
2013-08-26 02:21:00,79.1,74.6,29.92,SSW,197,0.0,7.0,86,0.00,,,0.00,VWS V14.01,2013-08-26 07:21:00,
2013-08-26 02:26:00,79.1,74.6,29.92,SSW,203,0.0,7.0,86,0.00,,,0.00,VWS V14.01,2013-08-26 07:26:00,
2013-08-26 02:31:00,79.1,74.6,29.92,South,187,1.0,2.0,86,0.00,,,0.00,VWS V14.01,2013-08-26 07:31:00,
2013-08-26 02:36:00,79.0,74.5,29.92,South,177,0.0,2.0,86,0.00,,,0.00,VWS V14.01,2013-08-26 07:36:00,
2013-08-26 02:41:00,79.0,74.5,29.92,SSE,148,0.0,5.0,86,0.00,,,0.00,VWS V14.01,2013-08-26 07:41:00,
2013-08-26 02:46:00,78.8,74.3,29.92,WSW,242,0.0,1.0,86,0.00,,,0.00,VWS V14.01,2013-08-26 07:46:00,
2013-08-26 02:51:00,78.7,74.5,29.92,South,181,4.0,4.0,87,0.00,,,0.00,VWS V14.01,2013-08-26 07:51:00,
2013-08-26 02:57:00,78.6,74.4,29.92,SSE,155,0.0,4.0,87,0.00,,,0.00,VWS V14.01,2013-08-26 07:57:00,
2013-08-26 03:02:00,78.5,74.3,29.91,SSE,149,0.0,3.0,87,0.00,,,0.00,VWS V14.01,2013-08-26 08:02:00,
2013-08-26 03:07:00,78.4,74.2,29.92,SW,228,2.0,6.0,87,0.00,,,0.00,VWS V14.01,2013-08-26 08:07:00,
2013-08-26 03:12:00,78.4,74.2,29.92,WNW,284,1.0,6.0,87,0.00,,,0.00,VWS V14.01,2013-08-26 08:12:00,
2013-08-26 03:17:00,78.4,74.2,29.92,ESE,114,1.0,6.0,87,0.00,,,0.00,VWS V14.01,2013-08-26 08:17:00,
2013-08-26 03:22:00,78.4,74.2,29.92,ESE,103,0.0,6.0,87,0.00,,,0.00,VWS V14.01,2013-08-26 08:22:00,
2013-08-26 03:27:00,78.5,74.3,29.92,SW,236,4.0,6.0,87,0.00,,,0.00,VWS V14.01,2013-08-26 08:27:00,
2013-08-26 03:32:00,78.4,74.2,29.92,NNW,344,0.0,5.0,87,0.00,,,0.00,VWS V14.01,2013-08-26 08:32:00,
2013-08-26 03:37:00,78.4,74.2,29.92,NNE,19,0.0,5.0,87,0.00,,,0.00,VWS V14.01,2013-08-26 08:37:00,
2013-08-26 03:42:00,78.3,74.1,29.91,ESE,112,0.0,6.0,87,0.00,,,0.00,VWS V14.01,2013-08-26 08:42:00,
2013-08-26 03:47:00,78.3,74.1,29.91,ESE,106,1.0,4.0,87,0.00,,,0.00,VWS V14.01,2013-08-26 08:47:00,
2013-08-26 03:52:00,78.2,74.0,29.91,ENE,57,0.0,4.0,87,0.00,,,0.00,VWS V14.01,2013-08-26 08:52:00,
2013-08-26 03:57:00,78.2,74.0,29.91,SW,226,0.0,5.0,87,0.00,,,0.00,VWS V14.01,2013-08-26 08:57:00,
2013-08-26 04:02:00,78.2,74.0,29.91,NW,305,0.0,6.0,87,0.00,,,0.00,VWS V14.01,2013-08-26 09:02:00,
2013-08-26 04:07:00,78.2,74.0,29.91,ESE,120,1.0,6.0,87,0.00,,,0.00,VWS V14.01,2013-08-26 09:07:00,
2013-08-26 04:12:00,78.2,74.0,29.91,SW,232,0.0,6.0,87,0.00,,,0.00,VWS V14.01,2013-08-26 09:12:00,
2013-08-26 04:17:00,78.2,74.0,29.91,North,355,3.0,5.0,87,0.00,,,0.00,VWS V14.01,2013-08-26 09:17:00,
2013-08-26 04:22:00,78.2,74.0,29.91,WNW,292,3.0,6.0,87,0.00,,,0.00,VWS V14.01,2013-08-26 09:22:00,
2013-08-26 04:27:00,78.2,74.0,29.90,SSE,162,4.0,8.0,87,0.00,,,0.00,VWS V14.01,2013-08-26 09:27:00,
2013-08-26 04:32:00,78.2,74.0,29.90,East,90,2.0,2.0,87,0.00,,,0.00,VWS V14.01,2013-08-26 09:32:00,
2013-08-26 04:37:00,78.1,73.9,29.90,WNW,292,2.0,4.0,87,0.00,,,0.00,VWS V14.01,2013-08-26 09:37:00,
2013-08-26 04:43:00,78.1,73.9,29.90,WNW,286,1.0,6.0,87,0.00,,,0.00,VWS V14.01,2013-08-26 09:43:00,
2013-08-26 04:48:00,78.0,73.8,29.90,NNE,33,0.0,9.0,87,0.00,,,0.00,VWS V14.01,2013-08-26 09:48:00,
2013-08-26 04:53:00,78.0,73.8,29.90,SSW,194,3.0,9.0,87,0.00,,,0.00,VWS V14.01,2013-08-26 09:53:00,
2013-08-26 04:58:00,77.9,73.7,29.90,NNW,347,2.0,9.0,87,0.00,,,0.00,VWS V14.01,2013-08-26 09:58:00,
2013-08-26 05:03:00,77.8,73.6,29.90,SW,226,1.0,5.0,87,0.00,,,0.00,VWS V14.01,2013-08-26 10:03:00,
2013-08-26 05:08:00,77.8,73.6,29.90,North,355,2.0,5.0,87,0.00,,,0.00,VWS V14.01,2013-08-26 10:08:00,
2013-08-26 05:13:00,77.8,73.6,29.90,SSW,196,0.0,5.0,87,0.00,,,0.00,VWS V14.01,2013-08-26 10:13:00,
2013-08-26 05:18:00,77.8,73.6,29.91,NW,312,0.0,4.0,87,0.00,,,0.00,VWS V14.01,2013-08-26 10:18:00,
2013-08-26 05:23:00,77.7,73.5,29.91,WSW,247,0.0,4.0,87,0.00,,,0.00,VWS V14.01,2013-08-26 10:23:00,
2013-08-26 05:28:00,77.6,73.4,29.90,NE,46,0.0,6.0,87,0.00,,,0.00,VWS V14.01,2013-08-26 10:28:00,
2013-08-26 05:33:00,77.5,73.3,29.90,SW,221,0.0,4.0,87,0.00,,,0.00,VWS V14.01,2013-08-26 10:33:00,
2013-08-26 05:38:00,77.4,73.6,29.91,NNW,342,0.0,4.0,88,0.00,,,0.00,VWS V14.01,2013-08-26 10:38:00,
2013-08-26 05:43:00,77.3,73.5,29.91,West,261,3.0,4.0,88,0.00,,,0.00,VWS V14.01,2013-08-26 10:43:00,
2013-08-26 05:48:00,77.3,73.5,29.91,WNW,296,0.0,3.0,88,0.00,,,0.00,VWS V14.01,2013-08-26 10:48:00,
2013-08-26 05:53:00,77.2,73.4,29.91,SW,224,0.0,4.0,88,0.00,,,0.00,VWS V14.01,2013-08-26 10:53:00,
2013-08-26 05:58:00,77.1,73.3,29.91,SW,218,0.0,7.0,88,0.00,,,0.00,VWS V14.01,2013-08-26 10:58:00,
2013-08-26 06:03:00,77.0,73.2,29.92,West,259,2.0,2.0,88,0.00,,,0.00,VWS V14.01,2013-08-26 11:03:00,
2013-08-26 06:08:00,76.9,73.1,29.92,West,265,1.0,2.0,88,0.00,,,0.00,VWS V14.01,2013-08-26 11:08:00,
2013-08-26 06:13:00,76.8,73.0,29.92,West,261,0.0,0.0,88,0.00,,,0.00,VWS V14.01,2013-08-26 11:13:00,
2013-08-26 06:18:00,76.8,73.0,29.92,WSW,256,0.0,1.0,88,0.00,,,0.00,VWS V14.01,2013-08-26 11:18:00,
2013-08-26 06:23:00,76.7,72.9,29.92,West,275,0.0,1.0,88,0.00,,,0.00,VWS V14.01,2013-08-26 11:23:00,
2013-08-26 06:29:00,76.6,73.1,29.93,SSW,196,0.0,0.0,89,0.00,,,0.00,VWS V14.01,2013-08-26 11:29:00,
2013-08-26 06:34:00,76.5,73.0,29.93,SW,234,0.0,3.0,89,0.00,,,0.00,VWS V14.01,2013-08-26 11:34:00,
2013-08-26 06:39:00,76.4,72.9,29.93,WSW,239,0.0,3.0,89,0.00,,,0.00,VWS V14.01,2013-08-26 11:39:00,
2013-08-26 06:44:00,76.4,72.9,29.93,NW,305,0.0,0.0,89,0.00,,,0.00,VWS V14.01,2013-08-26 11:44:00,
2013-08-26 06:49:00,76.3,72.8,29.93,West,281,0.0,3.0,89,0.00,,,0.00,VWS V14.01,2013-08-26 11:49:00,
2013-08-26 06:54:00,76.3,72.8,29.93,West,276,0.0,3.0,89,0.00,,,0.00,VWS V14.01,2013-08-26 11:54:00,
2013-08-26 06:59:00,76.3,72.8,29.93,WNW,297,0.0,0.0,89,0.00,,,0.00,VWS V14.01,2013-08-26 11:59:00,
2013-08-26 07:04:00,76.2,72.7,29.93,NW,314,0.0,1.0,89,0.00,,,0.00,VWS V14.01,2013-08-26 12:04:00,
2013-08-26 07:09:00,76.2,72.7,29.93,SSE,152,0.0,4.0,89,0.00,,,0.00,VWS V14.01,2013-08-26 12:09:00,
2013-08-26 07:14:00,76.2,72.7,29.93,West,277,0.0,0.0,89,0.00,,,0.00,VWS V14.01,2013-08-26 12:14:00,
2013-08-26 07:19:00,76.2,72.7,29.93,SSW,203,0.0,2.0,89,0.00,,,0.00,VWS V14.01,2013-08-26 12:19:00,
2013-08-26 07:24:00,76.2,73.1,29.93,WSW,239,0.0,2.0,90,0.00,,,0.00,VWS V14.01,2013-08-26 12:24:00,
2013-08-26 07:29:00,76.4,72.9,29.93,SSW,211,0.0,2.0,89,0.00,,,0.00,VWS V14.01,2013-08-26 12:29:00,
2013-08-26 07:34:00,76.7,73.2,29.93,WSW,238,1.0,5.0,89,0.00,,,0.00,VWS V14.01,2013-08-26 12:34:00,
2013-08-26 07:39:00,77.0,73.2,29.93,SSW,205,0.0,5.0,88,0.00,,,0.00,VWS V14.01,2013-08-26 12:39:00,
2013-08-26 07:44:00,77.3,73.1,29.94,SSW,210,0.0,4.0,87,0.00,,,0.00,VWS V14.01,2013-08-26 12:44:00,
2013-08-26 07:49:00,77.5,73.3,29.94,SW,222,0.0,4.0,87,0.00,,,0.00,VWS V14.01,2013-08-26 12:49:00,
2013-08-26 07:54:00,77.7,73.5,29.94,SW,214,0.0,4.0,87,0.00,,,0.00,VWS V14.01,2013-08-26 12:54:00,
2013-08-26 07:59:00,77.9,73.4,29.94,South,190,4.0,5.0,86,0.00,,,0.00,VWS V14.01,2013-08-26 12:59:00,
2013-08-26 08:04:00,78.1,73.6,29.94,SSW,213,2.0,5.0,86,0.00,,,0.00,VWS V14.01,2013-08-26 13:04:00,
2013-08-26 08:09:00,78.1,73.2,29.94,SW,219,2.0,7.0,85,0.00,,,0.00,VWS V14.01,2013-08-26 13:09:00,
2013-08-26 08:14:00,78.2,73.3,29.94,WSW,250,0.0,2.0,85,0.00,,,0.00,VWS V14.01,2013-08-26 13:14:00,
2013-08-26 08:20:00,78.2,73.3,29.94,NNW,328,0.0,5.0,85,0.00,,,0.00,VWS V14.01,2013-08-26 13:20:00,
2013-08-26 08:25:00,78.4,73.5,29.94,SSW,205,0.0,7.0,85,0.00,,,0.00,VWS V14.01,2013-08-26 13:25:00,
2013-08-26 08:30:00,78.7,73.5,29.94,WNW,288,0.0,6.0,84,0.00,,,0.00,VWS V14.01,2013-08-26 13:30:00,
2013-08-26 08:35:00,78.9,73.7,29.94,South,185,1.0,6.0,84,0.00,,,0.00,VWS V14.01,2013-08-26 13:35:00,
2013-08-26 08:40:00,79.0,73.4,29.94,SSW,211,1.0,8.0,83,0.00,,,0.00,VWS V14.01,2013-08-26 13:40:00,
2013-08-26 08:45:00,79.2,73.6,29.94,SW,214,0.0,3.0,83,0.00,,,0.00,VWS V14.01,2013-08-26 13:45:00,
2013-08-26 08:50:00,79.5,73.5,29.93,South,189,0.0,4.0,82,0.00,,,0.00,VWS V14.01,2013-08-26 13:50:00,
2013-08-26 08:55:00,79.8,73.8,29.93,SSW,198,0.0,5.0,82,0.00,,,0.00,VWS V14.01,2013-08-26 13:55:00,
2013-08-26 09:00:00,80.2,73.8,29.93,SSW,204,0.0,2.0,81,0.00,,,0.00,VWS V14.01,2013-08-26 14:00:00,
2013-08-26 09:05:00,80.5,73.8,29.93,ESE,122,5.0,6.0,80,0.00,,,0.00,VWS V14.01,2013-08-26 14:05:00,
2013-08-26 09:10:00,80.9,73.8,29.93,SE,145,1.0,9.0,79,0.00,,,0.00,VWS V14.01,2013-08-26 14:10:00,
2013-08-26 09:15:00,81.2,74.1,29.93,WSW,237,1.0,4.0,79,0.00,,,0.00,VWS V14.01,2013-08-26 14:15:00,
2013-08-26 09:20:00,81.6,74.1,29.93,NW,323,1.0,7.0,78,0.00,,,0.00,VWS V14.01,2013-08-26 14:20:00,
2013-08-26 09:25:00,81.9,74.0,29.93,SW,224,5.0,8.0,77,0.00,,,0.00,VWS V14.01,2013-08-26 14:25:00,
2013-08-26 09:30:00,82.2,74.3,29.93,WSW,244,0.0,6.0,77,0.00,,,0.00,VWS V14.01,2013-08-26 14:30:00,
2013-08-26 09:35:00,82.7,74.4,29.93,SSW,211,4.0,6.0,76,0.00,,,0.00,VWS V14.01,2013-08-26 14:35:00,
2013-08-26 09:40:00,83.1,74.4,29.93,SSE,151,4.0,6.0,75,0.00,,,0.00,VWS V14.01,2013-08-26 14:40:00,
2013-08-26 09:45:00,83.4,74.7,29.93,SSW,205,0.0,3.0,75,0.00,,,0.00,VWS V14.01,2013-08-26 14:45:00,
2013-08-26 09:50:00,84.1,74.9,29.93,NNW,340,1.0,5.0,74,0.00,,,0.00,VWS V14.01,2013-08-26 14:50:00,
2013-08-26 09:56:00,84.4,74.4,29.93,WNW,302,0.0,6.0,72,0.00,,,0.00,VWS V14.01,2013-08-26 14:56:00,
2013-08-26 10:01:00,84.7,74.3,29.93,ENE,78,0.0,2.0,71,0.00,,,0.00,VWS V14.01,2013-08-26 15:01:00,
2013-08-26 10:06:00,84.9,74.4,29.92,SW,231,0.0,4.0,71,0.00,,,0.00,VWS V14.01,2013-08-26 15:06:00,
2013-08-26 10:11:00,85.2,74.7,29.92,ENE,71,0.0,6.0,71,0.00,,,0.00,VWS V14.01,2013-08-26 15:11:00,
2013-08-26 10:16:00,85.5,74.6,29.92,South,170,1.0,6.0,70,0.00,,,0.00,VWS V14.01,2013-08-26 15:16:00,
2013-08-26 10:21:00,85.7,74.8,29.92,WNW,301,1.0,6.0,70,0.00,,,0.00,VWS V14.01,2013-08-26 15:21:00,
2013-08-26 10:26:00,85.6,74.3,29.92,WNW,288,2.0,6.0,69,0.00,,,0.00,VWS V14.01,2013-08-26 15:26:00,
2013-08-26 10:31:00,85.8,74.5,29.92,WSW,250,7.0,7.0,69,0.00,,,0.00,VWS V14.01,2013-08-26 15:31:00,
2013-08-26 10:36:00,85.8,74.5,29.92,NNE,15,1.0,10.0,69,0.00,,,0.00,VWS V14.01,2013-08-26 15:36:00,
2013-08-26 10:41:00,85.9,74.1,29.93,SW,236,0.0,10.0,68,0.00,,,0.00,VWS V14.01,2013-08-26 15:41:00,
2013-08-26 10:46:00,86.2,74.8,29.93,SW,220,0.0,3.0,69,0.00,,,0.00,VWS V14.01,2013-08-26 15:46:00,
2013-08-26 10:51:00,86.7,74.9,29.92,South,182,4.0,5.0,68,0.00,,,0.00,VWS V14.01,2013-08-26 15:51:00,
2013-08-26 10:56:00,87.0,74.7,29.92,NW,315,1.0,7.0,67,0.00,,,0.00,VWS V14.01,2013-08-26 15:56:00,
2013-08-26 11:01:00,87.1,74.4,29.92,South,184,0.0,8.0,66,0.00,,,0.00,VWS V14.01,2013-08-26 16:01:00,
2013-08-26 11:06:00,87.3,74.6,29.92,WSW,244,1.0,8.0,66,0.00,,,0.00,VWS V14.01,2013-08-26 16:06:00,
2013-08-26 11:11:00,87.7,75.4,29.92,NE,45,0.0,8.0,67,0.00,,,0.00,VWS V14.01,2013-08-26 16:11:00,
2013-08-26 11:16:00,88.3,75.1,29.92,South,178,2.0,5.0,65,0.00,,,0.00,VWS V14.01,2013-08-26 16:16:00,
2013-08-26 11:22:00,88.7,75.0,29.92,ENE,68,0.0,5.0,64,0.00,,,0.00,VWS V14.01,2013-08-26 16:22:00,
2013-08-26 11:27:00,88.6,74.9,29.92,SSE,147,0.0,9.0,64,0.00,,,0.00,VWS V14.01,2013-08-26 16:27:00,
2013-08-26 11:32:00,88.9,75.2,29.92,South,190,0.0,4.0,64,0.00,,,0.00,VWS V14.01,2013-08-26 16:32:00,
2013-08-26 11:37:00,88.9,75.2,29.92,NNE,25,0.0,6.0,64,0.00,,,0.00,VWS V14.01,2013-08-26 16:37:00,
2013-08-26 11:42:00,88.8,75.1,29.92,SSE,162,0.0,11.0,64,0.00,,,0.00,VWS V14.01,2013-08-26 16:42:00,
2013-08-26 11:47:00,89.3,75.5,29.92,WNW,286,4.0,4.0,64,0.00,,,0.00,VWS V14.01,2013-08-26 16:47:00,
2013-08-26 11:52:00,89.6,75.3,29.92,ESE,108,1.0,4.0,63,0.00,,,0.00,VWS V14.01,2013-08-26 16:52:00,
2013-08-26 11:57:00,90.0,75.2,29.92,SSW,202,2.0,7.0,62,0.00,,,0.00,VWS V14.01,2013-08-26 16:57:00,
2013-08-26 12:02:00,89.9,76.1,29.92,ENE,65,0.0,2.0,64,0.00,,,0.00,VWS V14.01,2013-08-26 17:02:00,
2013-08-26 12:07:00,90.2,75.9,29.91,SSW,211,0.0,5.0,63,0.00,,,0.00,VWS V14.01,2013-08-26 17:07:00,
2013-08-26 12:12:00,90.2,75.9,29.91,West,277,0.0,7.0,63,0.00,,,0.00,VWS V14.01,2013-08-26 17:12:00,
2013-08-26 12:17:00,90.3,76.0,29.91,South,172,5.0,6.0,63,0.00,,,0.00,VWS V14.01,2013-08-26 17:17:00,
2013-08-26 12:23:00,90.2,75.4,29.91,SSW,196,1.0,7.0,62,0.00,,,0.00,VWS V14.01,2013-08-26 17:23:00,
2013-08-26 12:28:00,90.5,76.2,29.91,South,175,0.0,7.0,63,0.00,,,0.00,VWS V14.01,2013-08-26 17:28:00,
2013-08-26 12:33:00,91.0,76.2,29.91,West,281,0.0,2.0,62,0.00,,,0.00,VWS V14.01,2013-08-26 17:33:00,
2013-08-26 12:38:00,91.1,76.3,29.91,SW,230,1.0,6.0,62,0.00,,,0.00,VWS V14.01,2013-08-26 17:38:00,
2013-08-26 12:43:00,91.0,75.7,29.90,SSE,161,0.0,10.0,61,0.00,,,0.00,VWS V14.01,2013-08-26 17:43:00,
2013-08-26 12:48:00,90.9,76.6,29.90,South,189,0.0,3.0,63,0.00,,,0.00,VWS V14.01,2013-08-26 17:48:00,
2013-08-26 12:53:00,91.0,76.2,29.90,WSW,254,3.0,5.0,62,0.00,,,0.00,VWS V14.01,2013-08-26 17:53:00,
2013-08-26 12:58:00,91.0,76.2,29.90,WNW,294,0.0,6.0,62,0.00,,,0.00,VWS V14.01,2013-08-26 17:58:00,
2013-08-26 13:03:00,91.4,76.1,29.91,NW,312,0.0,7.0,61,0.00,,,0.00,VWS V14.01,2013-08-26 18:03:00,
2013-08-26 13:08:00,91.8,75.9,29.90,NW,325,0.0,7.0,60,0.00,,,0.00,VWS V14.01,2013-08-26 18:08:00,
2013-08-26 13:13:00,91.9,76.0,29.90,NNE,19,1.0,1.0,60,0.00,,,0.00,VWS V14.01,2013-08-26 18:13:00,
2013-08-26 13:18:00,92.0,76.6,29.90,SW,219,1.0,5.0,61,0.00,,,0.00,VWS V14.01,2013-08-26 18:18:00,
2013-08-26 13:23:00,92.1,76.2,29.90,WSW,246,0.0,9.0,60,0.00,,,0.00,VWS V14.01,2013-08-26 18:23:00,
2013-08-26 13:29:00,92.2,76.3,29.89,SW,227,4.0,7.0,60,0.00,,,0.00,VWS V14.01,2013-08-26 18:29:00,
2013-08-26 13:34:00,92.1,76.7,29.89,ESE,123,1.0,8.0,61,0.00,,,0.00,VWS V14.01,2013-08-26 18:34:00,
2013-08-26 13:39:00,92.2,76.3,29.89,South,171,0.0,8.0,60,0.00,,,0.00,VWS V14.01,2013-08-26 18:39:00,
2013-08-26 13:44:00,92.1,76.7,29.89,SW,228,3.0,3.0,61,0.00,,,0.00,VWS V14.01,2013-08-26 18:44:00,
2013-08-26 13:49:00,92.0,76.1,29.88,SSE,156,0.0,5.0,60,0.00,,,0.00,VWS V14.01,2013-08-26 18:49:00,
2013-08-26 13:54:00,91.9,76.0,29.88,South,177,2.0,8.0,60,0.00,,,0.00,VWS V14.01,2013-08-26 18:54:00,
2013-08-26 13:59:00,91.9,75.5,29.88,SE,144,2.0,2.0,59,0.00,,,0.00,VWS V14.01,2013-08-26 18:59:00,
2013-08-26 14:04:00,92.0,76.6,29.88,SSW,209,5.0,5.0,61,0.00,,,0.00,VWS V14.01,2013-08-26 19:04:00,
2013-08-26 14:09:00,92.0,76.6,29.88,SSW,209,3.0,10.0,61,0.00,,,0.00,VWS V14.01,2013-08-26 19:09:00,
2013-08-26 14:14:00,92.0,76.1,29.87,SSW,212,0.0,4.0,60,0.00,,,0.00,VWS V14.01,2013-08-26 19:14:00,
2013-08-26 14:19:00,92.1,76.2,29.87,SSE,150,2.0,8.0,60,0.00,,,0.00,VWS V14.01,2013-08-26 19:19:00,
2013-08-26 14:25:00,92.4,76.0,29.87,South,184,5.0,9.0,59,0.00,,,0.00,VWS V14.01,2013-08-26 19:25:00,
2013-08-26 14:30:00,92.2,76.8,29.87,NW,322,1.0,4.0,61,0.00,,,0.00,VWS V14.01,2013-08-26 19:30:00,
2013-08-26 14:35:00,92.5,78.1,29.87,South,180,0.0,4.0,63,0.00,,,0.00,VWS V14.01,2013-08-26 19:35:00,
2013-08-26 14:40:00,93.2,77.3,29.86,WSW,238,6.0,6.0,60,0.00,,,0.00,VWS V14.01,2013-08-26 19:40:00,
2013-08-26 14:45:00,92.5,76.1,29.86,SW,219,3.0,7.0,59,0.00,,,0.00,VWS V14.01,2013-08-26 19:45:00,
2013-08-26 14:50:00,92.0,76.6,29.86,NW,308,1.0,8.0,61,0.00,,,0.00,VWS V14.01,2013-08-26 19:50:00,
2013-08-26 14:55:00,92.1,77.7,29.86,South,169,0.0,8.0,63,0.00,,,0.00,VWS V14.01,2013-08-26 19:55:00,
2013-08-26 15:00:00,92.9,77.0,29.86,SSW,211,1.0,7.0,60,0.00,,,0.00,VWS V14.01,2013-08-26 20:00:00,
2013-08-26 15:05:00,93.3,77.3,29.85,SW,225,3.0,7.0,60,0.00,,,0.00,VWS V14.01,2013-08-26 20:05:00,
2013-08-26 15:10:00,93.7,76.7,29.85,SSW,201,4.0,9.0,58,0.00,,,0.00,VWS V14.01,2013-08-26 20:10:00,
2013-08-26 15:15:00,93.4,76.4,29.85,WNW,294,3.0,10.0,58,0.00,,,0.00,VWS V14.01,2013-08-26 20:15:00,
2013-08-26 15:20:00,93.3,76.8,29.85,SW,227,5.0,14.0,59,0.00,,,0.00,VWS V14.01,2013-08-26 20:20:00,
2013-08-26 15:25:00,93.2,77.3,29.85,SSE,157,1.0,14.0,60,0.00,,,0.00,VWS V14.01,2013-08-26 20:25:00,
2013-08-26 15:30:00,93.6,77.6,29.85,SSE,161,4.0,5.0,60,0.00,,,0.00,VWS V14.01,2013-08-26 20:30:00,
2013-08-26 15:35:00,93.9,77.4,29.85,NNW,348,1.0,7.0,59,0.00,,,0.00,VWS V14.01,2013-08-26 20:35:00,
2013-08-26 15:40:00,93.9,77.9,29.84,ENE,71,0.0,10.0,60,0.00,,,0.00,VWS V14.01,2013-08-26 20:40:00,
2013-08-26 15:46:00,93.7,77.7,29.84,SE,146,1.0,4.0,60,0.00,,,0.00,VWS V14.01,2013-08-26 20:46:00,
2013-08-26 15:51:00,93.5,77.5,29.84,South,179,7.0,8.0,60,0.00,,,0.00,VWS V14.01,2013-08-26 20:51:00,
2013-08-26 15:56:00,93.4,77.9,29.84,SW,227,0.0,8.0,61,0.00,,,0.00,VWS V14.01,2013-08-26 20:56:00,
2013-08-26 16:01:00,93.6,77.6,29.84,SSW,210,5.0,8.0,60,0.00,,,0.00,VWS V14.01,2013-08-26 21:01:00,
2013-08-26 16:06:00,93.5,77.5,29.84,NNW,344,2.0,8.0,60,0.00,,,0.00,VWS V14.01,2013-08-26 21:06:00,
2013-08-26 16:11:00,93.4,77.4,29.84,SW,214,0.0,8.0,60,0.00,,,0.00,VWS V14.01,2013-08-26 21:11:00,
2013-08-26 16:16:00,93.5,78.0,29.84,WSW,247,3.0,8.0,61,0.00,,,0.00,VWS V14.01,2013-08-26 21:16:00,
2013-08-26 16:21:00,93.5,78.0,29.84,SSE,155,8.0,10.0,61,0.00,,,0.00,VWS V14.01,2013-08-26 21:21:00,
2013-08-26 16:26:00,93.3,77.3,29.84,South,191,2.0,10.0,60,0.00,,,0.00,VWS V14.01,2013-08-26 21:26:00,
2013-08-26 16:31:00,93.2,77.3,29.84,SSW,212,4.0,11.0,60,0.00,,,0.00,VWS V14.01,2013-08-26 21:31:00,
2013-08-26 16:36:00,93.2,77.8,29.84,SSW,194,0.0,11.0,61,0.00,,,0.00,VWS V14.01,2013-08-26 21:36:00,
2013-08-26 16:41:00,93.1,77.7,29.84,NNE,15,1.0,11.0,61,0.00,,,0.00,VWS V14.01,2013-08-26 21:41:00,
2013-08-26 16:46:00,93.1,78.2,29.84,SSW,198,5.0,8.0,62,0.00,,,0.00,VWS V14.01,2013-08-26 21:46:00,
2013-08-26 16:51:00,92.9,78.4,29.83,SSW,200,0.0,9.0,63,0.00,,,0.00,VWS V14.01,2013-08-26 21:51:00,
2013-08-26 16:56:00,92.9,78.4,29.83,West,274,2.0,10.0,63,0.00,,,0.00,VWS V14.01,2013-08-26 21:56:00,
2013-08-26 17:02:00,93.1,79.1,29.83,WSW,246,4.0,6.0,64,0.00,,,0.00,VWS V14.01,2013-08-26 22:02:00,
2013-08-26 17:07:00,93.1,78.6,29.83,WSW,240,3.0,6.0,63,0.00,,,0.00,VWS V14.01,2013-08-26 22:07:00,
2013-08-26 17:12:00,92.8,78.8,29.83,South,171,4.0,13.0,64,0.00,,,0.00,VWS V14.01,2013-08-26 22:12:00,
2013-08-26 17:17:00,92.6,79.1,29.83,WSW,237,1.0,9.0,65,0.00,,,0.00,VWS V14.01,2013-08-26 22:17:00,
2013-08-26 17:22:00,92.3,78.8,29.83,SSE,167,5.0,11.0,65,0.00,,,0.00,VWS V14.01,2013-08-26 22:22:00,
2013-08-26 17:27:00,92.3,78.8,29.83,WSW,240,7.0,11.0,65,0.00,,,0.00,VWS V14.01,2013-08-26 22:27:00,
2013-08-26 17:32:00,92.2,78.7,29.83,SSE,150,2.0,9.0,65,0.00,,,0.00,VWS V14.01,2013-08-26 22:32:00,
2013-08-26 17:37:00,92.3,79.3,29.82,SE,130,0.0,9.0,66,0.00,,,0.00,VWS V14.01,2013-08-26 22:37:00,
2013-08-26 17:42:00,92.4,78.9,29.82,SSE,159,0.0,9.0,65,0.00,,,0.00,VWS V14.01,2013-08-26 22:42:00,
2013-08-26 17:47:00,92.1,78.2,29.81,SE,143,5.0,10.0,64,0.00,,,0.00,VWS V14.01,2013-08-26 22:47:00,
2013-08-26 17:52:00,91.9,78.5,29.81,SW,219,6.0,10.0,65,0.00,,,0.00,VWS V14.01,2013-08-26 22:52:00,
2013-08-26 17:57:00,91.6,78.2,29.81,South,169,1.0,10.0,65,0.00,,,0.00,VWS V14.01,2013-08-26 22:57:00,
2013-08-26 18:03:00,91.5,78.5,29.81,SSW,194,2.0,9.0,66,0.00,,,0.00,VWS V14.01,2013-08-26 23:03:00,
2013-08-26 18:08:00,91.4,78.4,29.80,WSW,246,0.0,11.0,66,0.00,,,0.00,VWS V14.01,2013-08-26 23:08:00,
2013-08-26 18:13:00,91.2,78.3,29.80,SSE,147,0.0,11.0,66,0.00,,,0.00,VWS V14.01,2013-08-26 23:13:00,
2013-08-26 18:18:00,91.1,78.6,29.80,West,265,4.0,8.0,67,0.00,,,0.00,VWS V14.01,2013-08-26 23:18:00,
2013-08-26 18:23:00,90.9,78.0,29.80,SSW,195,3.0,8.0,66,0.00,,,0.00,VWS V14.01,2013-08-26 23:23:00,
2013-08-26 18:28:00,90.7,78.2,29.80,SSW,213,4.0,8.0,67,0.00,,,0.00,VWS V14.01,2013-08-26 23:28:00,
2013-08-26 18:33:00,90.5,78.1,29.80,WSW,240,1.0,8.0,67,0.00,,,0.00,VWS V14.01,2013-08-26 23:33:00,
2013-08-26 18:38:00,90.3,78.3,29.80,WNW,286,2.0,8.0,68,0.00,,,0.00,VWS V14.01,2013-08-26 23:38:00,
2013-08-26 18:43:00,90.1,78.1,29.80,SW,216,2.0,8.0,68,0.00,,,0.00,VWS V14.01,2013-08-26 23:43:00,
2013-08-26 18:48:00,89.7,78.2,29.80,NNE,13,2.0,7.0,69,0.00,,,0.00,VWS V14.01,2013-08-26 23:48:00,
2013-08-26 18:53:00,89.3,78.2,29.80,SSW,196,0.0,7.0,70,0.00,,,0.00,VWS V14.01,2013-08-26 23:53:00,
2013-08-26 18:58:00,88.9,77.8,29.80,WSW,244,5.0,9.0,70,0.00,,,0.00,VWS V14.01,2013-08-26 23:58:00,
2013-08-26 19:03:00,88.6,77.6,29.80,South,184,4.0,10.0,70,0.00,,,0.00,VWS V14.01,2013-08-27 00:03:00,
2013-08-26 19:08:00,88.3,77.7,29.79,SSW,199,8.0,10.0,71,0.00,,,0.00,VWS V14.01,2013-08-27 00:08:00,
2013-08-26 19:13:00,88.1,77.5,29.80,South,190,10.0,10.0,71,0.00,,,0.00,VWS V14.01,2013-08-27 00:13:00,
2013-08-26 19:18:00,88.0,77.4,29.80,SW,224,4.0,10.0,71,0.00,,,0.00,VWS V14.01,2013-08-27 00:18:00,
2013-08-26 19:24:00,87.9,77.8,29.80,SSW,209,1.0,10.0,72,0.00,,,0.00,VWS V14.01,2013-08-27 00:24:00,
2013-08-26 19:29:00,87.7,77.6,29.79,South,188,4.0,4.0,72,0.00,,,0.00,VWS V14.01,2013-08-27 00:29:00,
2013-08-26 19:34:00,87.5,77.4,29.79,SSW,197,1.0,10.0,72,0.00,,,0.00,VWS V14.01,2013-08-27 00:34:00,
2013-08-26 19:39:00,87.2,77.5,29.79,SSE,148,2.0,10.0,73,0.00,,,0.00,VWS V14.01,2013-08-27 00:39:00,
2013-08-26 19:44:00,87.1,77.4,29.80,SSW,213,4.0,5.0,73,0.00,,,0.00,VWS V14.01,2013-08-27 00:44:00,
2013-08-26 19:49:00,86.9,77.2,29.80,WSW,247,3.0,5.0,73,0.00,,,0.00,VWS V14.01,2013-08-27 00:49:00,
2013-08-26 19:54:00,86.7,77.0,29.80,WSW,238,2.0,10.0,73,0.00,,,0.00,VWS V14.01,2013-08-27 00:54:00,
2013-08-26 19:59:00,86.5,77.2,29.80,SSW,195,0.0,3.0,74,0.00,,,0.00,VWS V14.01,2013-08-27 00:59:00,
2013-08-26 20:04:00,86.3,77.0,29.80,South,169,0.0,6.0,74,0.00,,,0.00,VWS V14.01,2013-08-27 01:04:00,
2013-08-26 20:09:00,86.2,76.9,29.80,SSW,205,3.0,6.0,74,0.00,,,0.00,VWS V14.01,2013-08-27 01:09:00,
2013-08-26 20:15:00,86.0,77.2,29.79,South,184,3.0,5.0,75,0.00,,,0.00,VWS V14.01,2013-08-27 01:15:00,
2013-08-26 20:20:00,85.9,77.1,29.80,SSW,194,4.0,8.0,75,0.00,,,0.00,VWS V14.01,2013-08-27 01:20:00,
2013-08-26 20:25:00,85.7,76.9,29.80,NW,321,0.0,8.0,75,0.00,,,0.00,VWS V14.01,2013-08-27 01:25:00,
2013-08-26 20:30:00,85.5,76.7,29.79,SW,225,6.0,6.0,75,0.00,,,0.00,VWS V14.01,2013-08-27 01:30:00,
2013-08-26 20:35:00,85.4,77.0,29.79,SW,218,3.0,7.0,76,0.00,,,0.00,VWS V14.01,2013-08-27 01:35:00,
2013-08-26 20:40:00,85.2,76.8,29.79,WSW,250,0.0,10.0,76,0.00,,,0.00,VWS V14.01,2013-08-27 01:40:00,
2013-08-26 20:45:00,85.1,76.7,29.79,SSW,212,2.0,5.0,76,0.00,,,0.00,VWS V14.01,2013-08-27 01:45:00,
2013-08-26 20:50:00,85.1,76.7,29.80,SW,217,0.0,8.0,76,0.00,,,0.00,VWS V14.01,2013-08-27 01:50:00,
2013-08-26 20:55:00,84.9,76.9,29.80,SSW,209,1.0,8.0,77,0.00,,,0.00,VWS V14.01,2013-08-27 01:55:00,
2013-08-26 21:00:00,84.8,76.8,29.80,ENE,65,0.0,5.0,77,0.00,,,0.00,VWS V14.01,2013-08-27 02:00:00,
2013-08-26 21:05:00,84.8,76.8,29.81,SSW,196,4.0,9.0,77,0.00,,,0.00,VWS V14.01,2013-08-27 02:05:00,
2013-08-26 21:11:00,84.7,76.7,29.81,SSW,200,1.0,9.0,77,0.00,,,0.00,VWS V14.01,2013-08-27 02:11:00,
2013-08-26 21:16:00,84.6,76.6,29.81,WSW,251,2.0,9.0,77,0.00,,,0.00,VWS V14.01,2013-08-27 02:16:00,
2013-08-26 21:21:00,84.5,76.5,29.81,WSW,237,3.0,9.0,77,0.00,,,0.00,VWS V14.01,2013-08-27 02:21:00,
2013-08-26 21:26:00,84.4,76.4,29.81,SW,234,0.0,9.0,77,0.00,,,0.00,VWS V14.01,2013-08-27 02:26:00,
2013-08-26 21:31:00,84.3,76.3,29.81,NNE,17,1.0,7.0,77,0.00,,,0.00,VWS V14.01,2013-08-27 02:31:00,
2013-08-26 21:36:00,84.2,76.6,29.80,SW,225,2.0,7.0,78,0.00,,,0.00,VWS V14.01,2013-08-27 02:36:00,
2013-08-26 21:41:00,84.1,76.5,29.81,SSW,194,0.0,7.0,78,0.00,,,0.00,VWS V14.01,2013-08-27 02:41:00,
2013-08-26 21:46:00,84.0,76.4,29.80,SW,225,4.0,7.0,78,0.00,,,0.00,VWS V14.01,2013-08-27 02:46:00,
2013-08-26 21:51:00,83.9,76.3,29.81,SW,229,0.0,7.0,78,0.00,,,0.00,VWS V14.01,2013-08-27 02:51:00,
2013-08-26 21:56:00,83.8,76.2,29.80,SSE,155,0.0,7.0,78,0.00,,,0.00,VWS V14.01,2013-08-27 02:56:00,
2013-08-26 22:01:00,83.7,76.1,29.81,SE,145,0.0,3.0,78,0.00,,,0.00,VWS V14.01,2013-08-27 03:01:00,
2013-08-26 22:06:00,83.6,76.4,29.81,SW,225,0.0,9.0,79,0.00,,,0.00,VWS V14.01,2013-08-27 03:06:00,
2013-08-26 22:12:00,83.6,76.4,29.81,SSE,163,1.0,9.0,79,0.00,,,0.00,VWS V14.01,2013-08-27 03:12:00,
2013-08-26 22:17:00,83.5,76.3,29.80,WSW,253,4.0,9.0,79,0.00,,,0.00,VWS V14.01,2013-08-27 03:17:00,
2013-08-26 22:22:00,83.4,76.2,29.80,West,275,0.0,9.0,79,0.00,,,0.00,VWS V14.01,2013-08-27 03:22:00,
2013-08-26 22:27:00,83.4,76.2,29.80,South,172,0.0,9.0,79,0.00,,,0.00,VWS V14.01,2013-08-27 03:27:00,
2013-08-26 22:32:00,83.4,76.2,29.80,SW,230,3.0,5.0,79,0.00,,,0.00,VWS V14.01,2013-08-27 03:32:00,
2013-08-26 22:37:00,83.4,76.2,29.80,South,188,0.0,6.0,79,0.00,,,0.00,VWS V14.01,2013-08-27 03:37:00,
2013-08-26 22:42:00,83.3,76.1,29.80,SSW,199,0.0,8.0,79,0.00,,,0.00,VWS V14.01,2013-08-27 03:42:00,
2013-08-26 22:47:00,83.2,76.0,29.80,NNE,20,1.0,6.0,79,0.00,,,0.00,VWS V14.01,2013-08-27 03:47:00,
2013-08-26 22:52:00,83.2,76.0,29.80,WNW,299,1.0,6.0,79,0.00,,,0.00,VWS V14.01,2013-08-27 03:52:00,
2013-08-26 22:57:00,83.1,75.9,29.80,NNE,27,0.0,6.0,79,0.00,,,0.00,VWS V14.01,2013-08-27 03:57:00,
2013-08-26 23:01:00,83.1,75.9,29.80,SSW,202,2.0,3.0,79,0.00,,,0.00,VWS V14.01,2013-08-27 04:01:00,
2013-08-26 23:02:00,83.1,75.9,29.80,East,94,0.0,3.0,79,0.00,,,0.00,VWS V14.01,2013-08-27 04:02:00,
2013-08-26 23:03:00,83.1,75.9,29.79,NNW,340,0.0,3.0,79,0.00,,,0.00,VWS V14.01,2013-08-27 04:03:00,
2013-08-26 23:09:00,83.1,75.9,29.79,SW,225,2.0,5.0,79,0.00,,,0.00,VWS V14.01,2013-08-27 04:09:00,
2013-08-26 23:14:00,83.0,75.8,29.79,WSW,256,1.0,3.0,79,0.00,,,0.00,VWS V14.01,2013-08-27 04:14:00,
2013-08-26 23:19:00,83.0,75.8,29.79,South,178,1.0,3.0,79,0.00,,,0.00,VWS V14.01,2013-08-27 04:19:00,
2013-08-26 23:24:00,82.9,75.7,29.79,SSW,213,0.0,5.0,79,0.00,,,0.00,VWS V14.01,2013-08-27 04:24:00,
2013-08-26 23:29:00,82.9,75.7,29.79,WSW,240,0.0,3.0,79,0.00,,,0.00,VWS V14.01,2013-08-27 04:29:00,
2013-08-26 23:34:00,82.9,75.7,29.79,NW,319,5.0,5.0,79,0.00,,,0.00,VWS V14.01,2013-08-27 04:34:00,
2013-08-26 23:39:00,82.8,75.6,29.79,South,181,3.0,8.0,79,0.00,,,0.00,VWS V14.01,2013-08-27 04:39:00,
2013-08-26 23:44:00,82.8,75.6,29.79,WSW,256,0.0,2.0,79,0.00,,,0.00,VWS V14.01,2013-08-27 04:44:00,
2013-08-26 23:49:00,82.7,75.5,29.79,SW,228,0.0,4.0,79,0.00,,,0.00,VWS V14.01,2013-08-27 04:49:00,
2013-08-26 23:54:00,82.5,75.3,29.79,SSE,150,1.0,6.0,79,0.00,,,0.00,VWS V14.01,2013-08-27 04:54:00,
2013-08-26 23:59:00,82.5,75.7,29.80,SSW,213,0.0,0.0,80,0.00,,,0.00,VWS V14.01,2013-08-27 04:59:00,